Theta_e
320 320 320 320 320 321 321 321 321 321 322 322 322 323 323 323 323 323 323 323 322 322 323 323 323 323 323 323 323 323 320 317 317 318 318 317 330 340 350 355 353 349 360 337 333 326 319 323 321 326 326 325 324 323 327 327 324 318 312 308 308 307 309 313 314 315 318 316 318 320 322 321 319 324 329 334 332 332 332 332 336 338 338 340 342 345 346 347
320 319 320 320 320 320 320 321 320 321 321 321 321 322 323 323 323 323 322 322 322 322 323 323 323 323 323 323 323 323 319 317 317 317 317 328 343 345 351 353 357 355 351 326 322 322 321 317 318 322 324 320 328 321 328 321 325 315 309 310 308 309 313 318 320 320 318 318 320 321 323 323 322 325 329 327 326 326 328 331 334 334 337 340 342 343 344 345
319 319 319 319 319 319 320 320 320 320 321 321 321 321 322 322 322 322 322 322 321 321 323 323 323 323 323 323 323 322 319 319 319 312 317 342 346 346 348 352 355 361 330 322 322 322 322 319 321 319 318 318 320 318 325 320 322 315 310 305 310 315 317 320 323 320 323 322 321 321 322 323 323 326 329 325 326 328 326 328 331 332 333 336 339 342 343 344
319 318 319 319 319 319 319 320 320 320 320 320 321 321 321 321 321 321 321 321 321 321 322 323 323 323 323 323 323 321 318 319 305 311 320 357 354 349 347 348 355 357 331 325 325 323 323 322 319 319 317 315 315 321 317 319 318 312 310 308 312 316 316 320 323 323 323 326 325 324 325 325 327 329 330 328 325 326 328 333 332 332 334 336 339 341 342 343
318 318 318 319 319 319 319 320 320 320 320 321 320 320 321 321 321 321 321 320 321 322 322 324 324 324 324 323 321 319 318 299 303 316 338 355 358 354 348 351 357 344 330 328 326 323 322 319 318 319 318 311 314 315 316 318 320 314 312 316 318 317 317 321 323 323 323 325 326 325 323 323 329 330 329 328 323 323 328 333 336 336 337 337 338 340 341 341
317 318 317 318 318 319 319 319 320 319 320 320 320 320 320 320 320 320 320 320 320 320 322 325 324 324 325 323 320 319 305 293 312 316 368 355 352 355 349 353 358 337 330 326 323 322 320 319 319 316 311 311 310 310 314 315 316 309 315 317 318 319 318 321 323 322 325 325 324 323 324 326 326 326 329 328 327 329 335 336 337 338 339 340 341 341 340 340
317 317 317 317 318 318 318 319 319 319 319 319 319 319 320 320 319 319 319 319 320 320 323 325 324 325 324 322 317 319 310 308 314 318 350 352 355 352 351 356 360 329 326 322 320 318 319 317 318 316 315 312 312 310 314 316 316 315 311 318 319 321 319 320 320 326 326 325 323 326 328 324 324 322 328 327 330 333 335 337 338 339 340 341 339 340 340 340
316 317 317 317 317 318 318 318 318 318 318 318 318 319 319 319 319 318 319 320 319 321 323 325 325 325 324 319 319 307 312 310 316 319 351 362 352 355 352 342 333 325 322 318 316 317 319 316 316 320 313 310 311 312 315 313 315 314 311 316 315 318 319 323 325 325 326 326 327 328 325 324 326 325 327 327 331 334 335 337 338 339 339 340 339 339 339 339
316 316 317 317 317 317 318 318 318 318 318 318 318 318 318 318 318 318 319 319 320 321 324 326 325 325 324 320 311 301 301 312 317 341 353 341 342 339 328 324 327 323 320 321 321 319 318 316 318 319 310 310 313 311 313 310 308 316 315 317 318 317 320 324 325 326 327 328 329 326 324 327 328 330 326 329 332 335 336 336 337 337 337 338 339 339 338 338
316 316 316 317 317 317 317 317 318 318 318 318 318 317 317 317 317 318 319 319 320 322 324 326 326 324 319 319 309 296 306 314 318 344 337 337 337 328 321 321 324 320 316 317 320 320 318 319 318 320 318 314 315 311 314 312 311 318 317 317 316 321 323 324 323 324 326 326 327 324 324 326 329 327 319 330 333 335 334 334 335 335 335 337 338 339 339 338
315 316 316 316 316 317 317 317 317 317 318 317 317 317 317 317 317 317 318 319 320 322 325 326 325 322 318 319 303 299 312 318 333 335 332 333 328 323 320 319 322 318 316 314 317 320 321 320 320 319 317 312 313 312 310 315 318 317 317 315 315 321 323 323 322 322 324 323 327 326 322 324 326 327 322 328 332 334 331 331 332 333 333 335 336 336 337 337
315 315 316 316 316 316 317 317 317 317 317 317 316 316 317 317 316 317 318 319 320 322 326 325 325 320 318 315 306 305 316 323 321 326 327 326 321 321 321 319 322 318 317 313 314 316 319 319 320 318 310 316 309 312 311 318 318 317 318 313 317 320 318 321 320 321 324 321 325 326 322 320 322 321 326 329 332 331 330 329 330 330 330 332 334 335 334 334
315 315 315 315 316 316 316 317 316 317 316 316 316 315 316 316 316 317 318 319 321 324 326 326 323 321 319 305 310 318 318 319 318 318 322 324 321 319 318 317 320 319 318 315 313 316 318 317 318 313 316 314 312 307 312 317 317 318 317 314 313 314 314 319 321 322 322 322 325 325 309 312 319 324 327 330 329 329 328 327 328 328 329 331 332 333 333 334
315 315 315 315 315 316 316 316 316 316 315 315 315 315 315 315 316 317 319 320 322 323 327 327 323 320 319 310 315 322 323 322 321 320 317 322 320 317 317 317 317 319 319 316 316 316 317 317 320 315 317 313 311 315 312 315 317 312 313 314 305 306 306 316 319 320 319 322 325 324 309 310 319 323 327 329 330 327 325 326 326 328 329 330 331 331 332 335
314 314 315 315 315 315 315 316 315 315 315 315 314 314 314 314 317 319 321 322 322 325 326 327 321 319 316 315 325 330 353 341 327 323 320 317 317 314 315 316 316 318 318 317 316 318 319 319 316 311 308 315 316 312 306 310 312 311 308 302 308 305 306 314 321 320 316 320 324 320 310 313 318 322 327 329 329 328 325 326 327 329 329 329 330 330 332 334
314 314 315 314 315 315 315 315 314 314 314 313 313 313 315 315 318 320 322 323 324 327 325 321 320 319 313 309 319 341 326 324 324 331 326 319 318 313 315 315 317 317 317 316 319 319 318 318 311 309 310 311 310 306 302 306 307 308 305 303 304 306 306 310 316 321 321 320 321 319 310 314 316 323 326 328 328 327 325 325 329 329 329 329 329 330 332 332
314 314 314 314 315 315 315 314 313 314 313 313 313 313 314 317 320 322 325 325 324 326 323 317 323 320 306 319 328 319 319 323 325 323 321 320 318 315 314 314 313 313 314 315 317 317 316 313 314 311 311 307 305 303 301 301 301 304 306 304 307 307 307 305 312 319 321 320 314 319 315 315 319 322 325 327 327 326 325 325 329 329 329 329 329 330 332 331
313 314 314 314 314 315 314 313 313 313 312 311 311 311 310 316 321 322 320 322 325 324 320 323 320 313 309 320 312 316 322 321 323 319 320 321 318 314 313 311 311 310 313 311 314 311 312 306 308 301 305 309 305 300 298 296 301 301 304 304 305 307 310 308 305 314 319 319 315 316 316 315 319 322 324 325 327 326 325 326 330 330 329 329 328 329 331 331
313 313 313 313 314 314 313 313 313 312 312 312 312 314 318 319 317 317 321 318 319 316 307 313 310 298 298 309 321 322 322 323 321 320 316 319 318 315 313 313 312 308 307 306 305 308 309 305 309 303 299 301 303 303 300 304 305 307 308 307 307 306 307 308 310 317 318 314 314 315 313 315 318 320 323 324 326 325 325 327 330 329 330 329 327 330 331 331
313 313 313 313 314 313 313 313 312 311 311 308 307 309 315 306 306 315 320 322 318 315 312 313 315 313 313 314 314 318 325 325 317 316 317 319 319 313 310 310 309 309 306 302 304 305 309 300 297 300 301 304 306 306 306 307 307 309 310 309 308 308 309 311 312 317 319 313 314 315 315 316 317 320 321 324 326 325 325 324 327 328 328 328 327 330 330 333
313 313 313 313 313 313 312 312 311 311 310 307 305 307 304 303 300 301 308 309 317 320 317 317 318 316 314 318 320 319 316 317 318 314 316 322 320 313 308 307 304 302 302 304 304 307 309 299 300 304 306 307 308 309 307 306 306 309 308 309 307 309 307 312 312 317 317 313 311 316 315 316 317 319 320 324 325 323 324 324 326 327 328 328 328 330 331 334
313 313 313 313 312 312 312 311 311 310 309 304 310 307 309 311 312 313 310 304 311 314 318 319 320 318 322 321 322 322 320 315 314 312 316 320 315 311 306 305 302 299 303 304 304 302 300 299 303 306 309 309 309 309 308 306 305 306 306 308 307 307 310 313 315 316 316 313 308 315 313 314 316 318 320 323 324 325 326 325 327 328 328 328 329 331 332 335
313 313 313 313 312 311 311 310 309 309 306 307 304 304 306 315 318 317 314 308 306 312 312 312 311 316 317 322 324 324 315 313 310 311 313 318 311 312 305 303 301 302 303 303 299 299 298 300 304 308 309 308 308 308 307 306 305 302 304 303 303 309 308 303 312 314 315 312 309 314 313 313 317 318 319 323 325 324 326 327 329 330 329 329 330 333 333 335
313 313 313 312 312 311 311 309 308 309 306 306 306 307 311 312 314 315 312 302 303 310 313 316 316 316 315 314 319 319 315 315 314 309 316 316 309 311 305 305 301 301 300 301 301 298 298 303 308 308 308 308 307 308 306 303 299 302 304 304 304 308 310 310 310 312 314 315 315 313 311 310 314 314 315 320 325 324 324 326 329 330 332 332 332 335 336 336
313 313 313 312 311 310 308 307 308 305 307 308 309 311 311 314 314 316 309 303 304 306 316 315 318 317 318 323 322 313 314 315 315 315 316 316 310 308 305 308 303 300 301 301 301 299 300 306 310 308 308 307 306 305 306 304 298 299 303 305 305 311 311 311 312 311 306 307 312 312 300 302 309 313 315 317 319 319 323 323 325 328 330 331 330 333 336 337
312 313 313 312 311 310 308 303 305 305 307 305 305 312 313 313 314 314 309 301 296 304 312 305 318 312 322 314 317 315 314 309 316 316 316 316 316 311 308 303 305 300 302 300 300 300 301 305 307 307 307 307 306 304 306 304 299 298 299 304 306 311 312 311 310 309 299 301 309 315 303 296 306 308 313 315 316 317 320 323 324 327 329 329 330 332 335 336
312 312 313 311 311 308 301 299 304 307 302 304 309 313 311 312 312 310 303 296 294 306 303 315 310 309 317 314 315 315 300 304 317 316 315 318 312 315 305 300 304 305 305 306 304 298 305 305 305 306 307 306 304 303 306 304 300 297 300 304 304 310 310 311 311 310 306 310 312 313 308 302 300 308 313 315 314 314 317 320 322 325 327 328 330 333 334 335
313 312 311 311 310 309 302 304 303 303 306 307 313 310 311 311 309 311 301 288 288 312 309 307 311 317 315 314 315 310 307 312 308 311 316 316 314 310 307 302 301 300 304 302 294 304 306 302 304 304 305 303 302 305 307 305 302 300 306 306 303 311 312 312 311 308 304 306 302 306 312 302 300 307 312 313 311 310 315 318 320 323 325 327 329 333 334 335
312 312 311 311 310 308 308 304 305 305 312 312 309 310 311 309 309 303 295 288 304 310 316 306 316 315 312 314 311 311 311 313 307 311 314 315 316 309 305 303 303 303 303 303 297 300 306 305 306 307 305 303 306 307 307 306 302 305 307 306 305 305 311 313 310 307 304 301 299 304 309 299 297 305 308 313 311 310 313 317 320 322 324 325 327 332 334 335
312 311 311 310 307 305 305 307 304 308 310 309 309 310 310 308 304 296 292 286 309 300 308 308 306 305 309 307 307 310 309 310 312 312 311 310 311 312 310 311 306 302 301 304 302 302 305 312 313 307 305 307 307 308 309 306 307 304 306 305 303 301 302 311 305 301 298 296 295 306 309 305 296 304 308 309 311 313 315 317 319 322 323 325 327 331 333 333
311 310 310 310 302 305 304 299 302 307 309 310 309 309 308 304 298 290 286 296 305 304 309 306 304 309 305 305 302 308 309 308 309 308 305 309 307 308 308 305 308 303 301 299 301 303 305 306 306 308 312 311 310 308 309 308 307 306 303 301 301 297 297 302 297 299 295 289 294 304 307 307 296 299 309 314 318 317 317 316 317 320 322 324 326 331 333 332
309 308 310 307 307 308 300 298 304 307 307 309 310 307 300 293 295 289 289 309 296 302 301 301 305 305 304 307 305 305 305 307 308 307 301 303 301 302 301 296 300 294 294 295 294 301 301 303 305 308 315 310 308 305 306 306 305 305 301 299 295 289 294 288 293 294 290 291 297 302 308 302 301 303 313 315 317 318 319 320 319 320 322 324 325 330 332 332
308 307 308 308 309 306 306 307 307 307 308 308 308 305 296 291 286 292 294 300 296 304 304 307 304 305 305 303 303 306 309 303 308 306 305 304 302 302 304 302 302 299 291 297 296 296 298 303 305 306 307 312 309 303 299 301 301 300 298 295 292 289 289 285 287 288 289 294 299 299 304 299 300 305 312 316 318 320 320 321 322 322 322 323 325 328 332 332
307 307 305 307 308 308 309 310 309 309 308 312 307 298 295 288 288 307 298 299 300 306 307 305 306 306 304 301 303 306 302 307 306 304 304 301 302 298 301 303 304 301 301 299 294 294 291 294 301 303 300 308 308 308 304 301 301 301 299 300 295 292 291 288 288 288 289 292 295 301 296 292 296 298 312 318 321 321 321 322 322 323 324 324 325 328 330 332
306 306 306 306 308 309 309 311 310 310 308 308 299 295 289 288 293 293 296 300 303 305 304 308 304 303 302 303 304 307 306 302 307 304 301 300 298 299 299 301 304 304 302 296 299 298 297 295 299 305 305 307 307 309 307 304 302 301 301 302 297 296 297 293 292 291 293 293 295 298 295 298 299 306 314 319 321 320 322 320 321 322 323 323 323 325 328 331
305 305 307 305 309 312 310 311 311 310 307 302 294 289 289 294 291 298 297 305 304 302 303 304 303 299 298 299 303 304 309 303 305 304 300 302 302 300 303 304 304 305 301 296 298 295 298 293 302 305 307 306 308 308 307 307 296 299 301 296 298 303 303 298 301 300 300 295 292 298 301 301 307 306 309 316 318 318 320 320 320 320 322 322 323 324 326 330
302 304 304 308 310 314 312 312 312 310 308 299 290 287 293 296 301 301 308 304 304 303 301 294 297 298 297 296 299 303 305 307 303 303 296 302 300 304 303 304 307 305 306 303 300 301 294 294 301 303 304 306 309 309 308 309 304 301 297 298 304 306 305 297 291 293 292 289 291 298 296 295 299 295 308 314 315 317 318 319 320 320 320 320 322 323 326 329
301 302 306 307 310 314 314 313 313 310 307 298 290 300 299 295 302 302 305 303 304 304 298 297 298 302 297 298 297 301 304 302 299 302 297 302 297 307 304 304 307 307 307 308 301 299 302 294 297 302 305 307 308 307 305 307 309 304 301 305 302 295 297 297 295 290 290 290 289 291 297 296 297 299 307 310 314 315 317 319 319 318 319 320 322 323 325 328
302 302 300 306 317 316 314 315 313 308 303 293 291 293 301 300 303 302 306 306 305 303 298 300 297 302 301 298 301 303 302 299 299 299 297 298 297 304 305 307 304 308 308 308 304 303 304 294 294 302 303 306 306 304 297 302 306 308 306 304 305 301 297 295 295 293 293 289 292 289 295 292 304 299 307 312 314 316 317 317 318 319 320 321 322 323 324 326
302 298 296 307 319 318 316 315 310 304 297 290 291 293 301 299 301 303 304 303 302 301 300 299 301 299 301 300 302 300 302 302 300 298 300 300 301 305 305 308 305 306 308 309 305 306 300 300 291 296 304 305 299 301 300 300 299 300 302 299 302 306 302 301 302 298 294 288 288 288 289 292 301 309 309 313 312 314 317 317 317 319 320 322 322 323 324 326
302 298 299 314 319 318 316 311 302 298 294 296 298 297 298 297 301 302 305 305 304 308 303 302 301 298 300 300 300 304 303 303 301 298 300 300 301 296 306 307 307 305 308 307 305 303 300 298 295 296 299 297 298 303 306 304 305 301 300 298 299 298 297 294 291 299 298 292 286 288 288 294 304 316 313 310 310 315 317 318 318 319 320 321 323 324 325 326
299 293 297 313 313 318 311 301 301 302 299 296 294 299 298 308 301 301 303 304 305 303 308 304 304 302 302 302 302 302 302 303 303 299 300 299 303 302 305 308 309 308 305 302 303 306 304 301 298 295 297 299 303 307 308 308 307 304 304 300 302 298 297 294 289 292 298 297 299 295 293 294 305 312 312 312 313 316 318 319 318 320 322 323 324 325 325 327
298 296 307 310 312 308 303 300 304 303 299 302 306 305 306 304 302 303 302 303 302 305 304 303 303 302 304 303 303 302 303 303 306 300 300 302 303 306 308 308 309 308 307 304 306 305 323 300 298 298 300 303 306 308 308 308 307 303 303 301 301 299 299 297 295 295 295 296 295 293 292 295 304 315 312 314 314 314 316 318 318 321 323 324 324 325 327 328
298 298 302 311 314 309 302 295 297 299 301 304 304 303 306 304 303 302 301 302 301 302 302 303 305 307 304 307 305 303 307 301 307 306 303 304 301 308 308 309 309 306 305 302 302 305 301 299 296 293 293 295 298 301 302 305 305 301 298 301 303 301 301 301 304 301 297 296 296 293 289 295 307 315 314 312 312 314 315 316 319 319 321 322 324 326 329 330
297 301 301 305 315 307 296 299 299 299 302 302 302 301 302 302 304 304 303 302 305 304 303 302 305 306 305 306 305 306 308 306 305 308 307 307 306 308 308 308 310 307 309 310 325 307 301 299 298 290 288 288 288 287 289 293 298 300 303 302 304 303 301 300 297 298 291 297 299 293 294 296 304 311 311 309 310 312 315 316 319 320 320 321 324 327 328 329
297 293 301 302 304 305 304 306 303 300 300 301 300 302 304 302 305 305 305 304 305 305 304 305 306 307 304 304 303 304 306 308 305 305 306 308 313 313 314 314 311 307 318 329 323 308 303 304 300 297 295 292 295 294 299 303 299 300 300 302 302 303 302 300 297 294 294 293 298 294 302 301 306 308 307 308 309 310 312 314 316 317 318 321 325 328 329 329
300 296 295 290 298 300 298 302 299 298 295 299 294 302 301 303 304 305 307 301 305 304 304 304 305 305 305 305 304 305 307 306 307 307 306 311 311 312 314 316 315 318 334 327 324 306 302 299 300 300 300 301 301 301 307 306 302 302 301 301 302 302 301 300 297 296 298 297 291 295 302 304 305 308 307 308 308 310 313 314 315 317 317 320 325 327 336 329
294 300 299 298 291 288 293 295 297 296 299 302 300 305 303 303 304 301 305 306 306 307 301 304 304 305 304 304 306 302 306 306 310 308 313 312 310 310 310 313 312 324 322 315 319 305 301 297 301 302 301 302 304 305 305 305 304 304 303 303 302 302 300 300 299 299 302 299 295 301 303 304 306 308 309 309 310 312 313 315 317 318 318 319 325 328 329 328
303 301 300 303 293 295 295 296 298 299 300 301 300 304 302 304 303 306 303 302 304 304 304 300 304 305 307 309 306 304 307 304 304 312 312 309 310 307 305 308 312 312 311 308 312 309 303 298 301 304 302 303 303 304 305 303 304 304 304 304 303 302 300 300 302 304 304 301 302 305 305 305 308 310 310 311 313 314 314 316 316 316 317 319 329 330 329 329
297 296 296 302 300 297 298 298 300 300 297 303 300 302 302 300 300 307 309 306 304 305 310 307 308 308 308 308 307 305 311 311 311 309 315 312 306 310 306 310 306 309 310 309 310 307 306 298 310 303 300 302 305 306 304 303 303 302 302 302 304 303 302 300 301 306 306 305 305 306 305 305 309 311 311 312 312 315 315 314 315 316 317 322 326 331 331 331
299 301 302 297 294 295 299 299 298 298 297 300 299 301 301 300 301 309 308 312 309 306 308 306 308 308 309 309 310 314 313 314 312 312 312 313 306 310 309 306 309 306 308 307 309 310 309 298 306 300 297 299 303 303 302 302 302 301 301 303 302 301 303 304 305 305 306 305 307 306 304 304 310 312 314 313 313 314 314 314 315 316 318 321 323 327 332 333
301 304 304 299 291 299 294 298 297 297 295 301 301 301 298 298 305 309 305 311 314 312 311 310 309 308 307 310 308 310 311 311 311 312 311 312 311 311 310 310 310 309 306 308 310 305 303 302 299 297 294 296 301 302 302 301 300 300 302 301 304 305 304 306 309 312 311 307 306 303 305 311 312 315 314 313 312 312 312 313 315 316 317 319 321 325 329 333
Wind_Speed
21 22 23 22 23 21 22 22 21 21 22 20 20 21 22 23 22 20 18 18 18 17 17 17 16 15 14 13 13 13 12 5 5 1 2 14 9 15 11 5 6 11 7 2 2 2 5 4 5 2 2 0 3 2 3 2 4 4 3 5 1 4 6 5 5 4 7 7 9 11 12 14 10 8 10 14 13 14 11 9 10 11 8 13 14 14 16 15
22 23 22 22 22 22 22 21 20 20 20 20 20 21 21 22 22 23 21 19 18 18 17 17 16 14 13 12 12 12 9 2 6 6 15 14 14 14 13 10 6 10 7 2 5 4 2 6 9 2 1 2 1 4 0 2 3 5 3 5 9 4 6 7 5 8 6 10 11 11 12 14 11 14 12 13 13 13 13 11 11 14 15 16 16 16 16 15
23 22 22 22 22 22 22 21 21 20 20 21 20 20 21 21 22 22 21 20 19 19 17 17 15 13 11 11 11 10 7 4 3 8 13 12 18 17 16 14 9 12 8 3 4 6 8 7 2 8 2 3 2 6 1 3 1 4 6 5 7 5 3 5 8 6 9 11 11 10 8 13 11 8 9 13 14 17 17 13 15 15 18 17 17 17 16 15
23 23 23 22 22 23 22 22 22 23 23 22 21 20 20 20 21 22 21 21 19 19 18 16 14 12 11 11 9 7 1 3 3 5 4 2 9 18 18 16 12 12 7 4 2 3 3 4 4 3 3 4 4 5 5 4 2 3 5 6 6 5 6 7 11 7 8 13 13 12 8 9 9 12 13 16 15 10 14 20 21 20 18 19 17 17 15 15
24 23 22 24 24 23 22 22 22 22 21 21 22 21 20 20 21 21 21 21 20 18 18 16 13 12 11 9 9 3 3 4 6 3 1 8 6 14 17 13 14 9 9 2 2 5 4 3 3 2 2 4 3 2 7 8 6 1 4 8 10 6 7 9 9 9 9 11 9 10 10 9 11 14 17 18 15 11 13 12 19 21 21 19 19 16 15 15
24 22 24 24 23 23 23 23 22 24 22 21 22 21 21 21 20 21 21 20 20 18 17 15 12 12 12 11 5 2 2 1 1 5 2 9 6 9 15 13 13 7 5 3 2 2 2 1 2 1 2 1 3 4 5 3 4 1 1 8 7 7 9 6 10 7 14 12 11 9 7 8 9 11 12 15 13 10 12 17 18 19 19 19 17 16 15 16
22 23 25 23 22 23 23 24 24 23 22 23 23 23 22 21 20 20 20 20 19 18 17 15 11 12 12 10 2 1 1 8 5 9 10 10 5 9 13 10 9 6 5 4 4 3 1 3 2 4 1 3 7 4 7 5 2 8 6 12 12 12 10 7 10 16 15 15 10 8 7 8 12 10 5 9 10 16 14 17 18 18 16 18 18 17 17 15
24 23 24 23 23 23 23 24 24 24 23 22 21 21 22 21 20 20 19 19 19 18 16 14 10 10 10 3 1 2 1 9 17 9 3 8 7 9 12 6 7 5 5 9 6 4 1 4 5 1 2 3 4 4 5 3 2 8 5 7 6 11 10 13 15 13 14 12 9 10 9 5 6 6 8 12 16 16 16 16 17 17 17 15 17 17 17 15
23 22 23 22 23 23 23 24 24 23 22 22 21 21 21 22 21 19 19 19 19 17 14 13 10 8 8 4 2 5 8 8 5 4 7 7 7 8 12 4 5 7 4 3 3 4 4 4 1 1 3 7 3 6 9 4 3 3 8 9 12 11 13 15 17 15 14 9 12 12 10 9 12 14 11 15 16 16 17 16 17 16 16 15 15 16 14 14
24 24 23 23 23 24 24 24 24 24 22 23 22 23 22 22 20 19 20 18 18 16 14 10 9 7 4 1 2 2 8 6 6 7 7 9 8 6 8 8 9 6 4 5 4 7 8 1 2 2 2 5 4 7 12 2 6 8 11 11 14 17 15 15 16 14 12 11 13 14 11 12 8 11 4 8 16 16 17 17 16 16 15 15 14 15 14 15
26 25 25 24 24 24 24 25 24 25 25 25 23 22 21 21 20 21 19 18 16 15 12 9 6 5 2 1 2 6 8 6 6 2 6 10 9 9 9 6 9 7 7 3 10 9 2 3 3 3 3 3 7 9 8 7 9 11 11 9 11 13 15 15 15 14 12 6 14 15 9 6 6 9 12 13 15 17 17 16 15 14 13 13 14 13 11 11
27 26 25 25 25 24 25 25 25 24 25 25 25 22 21 22 22 21 20 18 16 13 9 5 6 2 1 1 5 10 5 1 2 5 2 3 8 12 12 11 11 10 9 9 7 4 4 5 2 1 3 2 6 7 6 7 9 13 16 11 16 16 12 15 14 9 13 6 12 12 12 8 5 10 13 15 15 15 16 15 14 13 11 11 13 12 10 9
27 27 27 28 27 26 25 25 25 25 26 25 25 23 22 23 22 21 20 17 9 8 6 5 3 2 2 5 11 13 8 10 11 9 3 5 5 5 4 4 7 8 9 9 4 3 5 4 2 4 6 3 4 2 6 3 7 11 12 13 12 10 10 11 11 12 14 8 15 12 7 4 6 13 14 14 14 14 14 13 12 9 8 10 11 10 9 7
27 27 28 28 27 28 28 27 26 26 26 26 25 24 22 23 22 22 19 13 10 10 8 5 1 2 2 7 8 3 5 6 8 8 8 6 5 5 5 6 4 2 4 5 6 5 5 1 0 5 4 5 7 3 5 2 4 10 7 10 6 9 7 9 10 13 14 9 15 9 9 4 10 11 13 14 16 15 13 12 10 8 10 10 10 8 7 6
28 28 27 28 28 29 29 27 26 26 27 26 26 26 25 25 22 19 15 8 6 8 4 2 1 0 1 9 8 12 14 7 8 12 8 7 8 5 6 6 6 5 6 8 4 4 4 3 3 4 6 6 7 4 7 2 0 7 9 5 1 7 4 9 12 15 13 6 10 10 7 8 11 12 14 14 15 15 12 11 10 10 10 11 8 8 6 6
25 27 27 27 27 28 28 27 26 28 26 26 26 28 27 24 19 15 9 5 3 2 2 0 2 1 2 9 6 9 3 5 6 14 9 11 11 9 8 8 4 4 4 4 8 5 4 2 4 4 5 5 8 3 5 2 0 1 9 4 5 6 6 7 9 13 19 13 7 10 7 6 4 11 13 14 15 14 13 12 11 13 12 11 8 8 6 5
24 26 26 30 29 29 29 27 26 28 29 27 29 29 25 19 15 9 2 4 3 2 2 1 1 3 0 4 6 6 3 3 4 0 6 11 13 9 4 2 3 4 5 5 5 4 4 2 1 2 4 7 5 2 4 3 2 3 2 6 6 10 6 5 5 10 16 17 8 6 11 8 9 12 13 14 14 13 13 11 12 13 12 10 8 8 7 7
24 25 30 30 30 29 28 26 26 28 29 29 26 25 22 21 6 8 4 1 0 2 2 3 2 1 10 1 3 3 3 4 1 5 4 8 12 7 5 4 2 4 1 4 3 5 2 3 3 6 4 0 3 5 3 5 9 8 6 7 6 5 12 8 7 11 16 15 12 8 11 7 11 11 13 15 14 14 13 12 14 12 11 10 9 8 8 7
28 28 28 29 29 31 27 27 26 26 26 29 25 22 10 1 3 1 3 2 1 1 1 0 1 2 5 5 4 6 5 4 4 2 4 5 6 5 4 3 3 4 3 3 4 5 2 3 2 2 8 5 4 8 7 9 6 10 10 9 9 9 10 10 7 13 20 15 13 14 12 12 13 12 12 11 14 14 13 11 12 11 12 11 10 8 9 8
28 29 28 27 26 26 27 26 26 26 26 22 14 6 1 3 2 0 0 1 4 7 12 12 9 9 11 17 12 5 4 5 5 7 5 3 6 5 5 4 3 3 3 6 2 4 3 5 6 8 9 9 5 8 9 9 4 5 8 9 13 11 6 6 9 13 11 8 13 14 15 16 16 16 15 13 13 11 13 11 13 12 12 11 9 10 11 9
25 27 27 26 25 26 26 28 27 26 25 11 7 3 3 3 5 8 13 12 10 13 13 15 11 13 14 14 10 6 4 5 7 6 11 4 4 9 5 4 4 6 5 5 7 2 6 7 9 10 10 9 8 7 5 3 4 7 7 9 11 11 9 9 10 14 7 8 7 11 15 16 16 14 14 12 15 14 15 13 14 14 14 12 12 11 12 11
27 26 25 25 26 26 27 28 28 25 20 2 1 3 4 4 4 4 5 10 15 8 10 16 13 13 14 15 18 9 5 8 12 8 5 9 4 10 3 7 4 8 3 1 2 3 3 9 10 10 10 6 6 6 5 4 6 5 6 8 7 8 4 3 7 10 7 8 7 11 15 14 14 15 13 14 15 14 16 15 16 16 14 12 11 12 12 9
28 26 26 25 25 28 28 29 27 25 3 3 7 7 4 7 6 6 4 9 14 9 10 13 12 13 16 12 12 6 8 9 10 8 5 9 5 10 6 8 6 4 3 5 8 4 5 6 12 10 6 4 6 5 5 5 5 6 6 3 8 6 7 5 9 8 8 5 10 12 14 10 11 10 14 15 15 11 14 16 16 17 17 16 15 15 14 13
29 27 26 25 26 27 28 29 27 5 2 9 8 7 8 7 7 7 6 3 9 11 11 12 10 11 14 13 2 8 10 7 8 10 6 8 7 6 5 10 6 5 8 6 7 7 7 6 4 8 7 5 9 9 7 6 7 5 9 7 6 4 9 12 9 5 5 2 14 9 6 5 8 9 9 11 13 11 13 13 13 15 17 18 15 14 16 17
26 27 26 26 24 27 29 27 4 5 10 12 6 5 4 10 8 6 4 4 3 8 6 8 8 7 14 6 8 6 5 5 9 6 6 10 6 6 6 3 4 9 7 5 5 5 8 12 4 5 8 7 7 10 10 6 7 4 6 10 9 16 17 10 8 10 3 2 7 18 3 6 8 13 16 12 8 10 12 14 15 14 13 12 14 16 15 15
29 28 27 23 24 25 29 5 3 10 13 8 4 6 10 11 10 7 0 1 7 6 1 7 6 8 6 5 5 8 4 8 9 7 9 10 7 6 4 4 3 10 10 4 6 3 7 7 5 8 9 9 8 7 10 4 7 6 6 9 11 16 15 11 11 9 4 9 12 12 12 4 4 10 13 12 13 14 11 15 16 15 14 14 14 14 15 16
28 28 23 22 20 21 12 4 7 13 8 2 5 11 12 12 8 10 1 2 5 4 4 0 4 2 5 6 7 5 6 7 8 6 12 8 9 5 7 5 3 1 5 2 1 6 5 8 8 8 9 11 8 10 9 6 5 7 5 6 5 11 14 18 16 15 11 1 2 5 4 8 6 12 10 13 14 14 14 16 16 16 16 16 14 15 16 16
28 25 22 20 18 11 6 7 10 8 10 7 10 13 14 11 11 0 2 3 3 2 2 2 4 3 2 4 10 8 3 7 8 7 11 11 7 7 4 8 7 7 6 6 11 1 8 6 9 12 11 8 9 9 9 7 7 7 9 9 6 14 17 18 16 13 5 11 6 4 2 4 6 7 5 9 11 11 17 18 18 18 17 17 16 16 17 18
24 23 23 20 20 17 9 5 3 9 4 6 13 13 11 13 3 2 2 0 4 2 1 3 4 1 1 3 6 5 3 5 5 6 5 8 13 3 10 6 7 10 7 8 8 2 5 7 10 12 9 10 9 10 8 8 5 9 10 5 4 5 9 16 12 13 6 8 10 11 8 5 3 1 8 4 12 14 17 20 20 19 19 17 17 16 18 16
25 23 22 19 16 4 1 3 10 15 10 14 13 14 14 3 2 1 2 4 2 5 2 1 1 4 3 5 4 6 6 4 3 4 6 8 9 5 1 7 5 4 8 5 6 8 5 7 9 7 9 9 8 10 11 8 13 4 4 6 2 4 5 10 3 5 5 6 7 15 12 9 4 6 12 12 15 21 16 12 13 14 16 17 17 17 16 13
25 25 20 15 7 4 6 8 10 11 9 8 11 12 3 2 3 4 4 5 5 7 1 1 3 3 5 7 5 5 7 5 7 4 4 5 9 7 3 3 2 2 1 5 9 10 9 6 5 3 8 7 8 11 9 8 6 5 3 3 4 4 4 4 2 1 5 5 6 13 14 11 6 4 6 14 18 21 18 21 20 19 20 18 15 15 15 15
26 26 25 12 11 5 6 8 1 3 7 11 12 5 2 2 4 5 7 3 1 5 3 2 4 3 8 7 7 9 9 4 4 6 6 8 6 9 7 6 6 6 6 4 6 5 12 12 5 7 8 13 8 8 11 4 3 7 2 3 6 2 1 1 1 5 6 7 6 11 19 7 10 8 17 20 20 15 15 18 22 22 21 17 15 15 15 14
27 27 29 17 12 10 16 20 7 9 11 11 4 1 1 5 5 6 6 1 5 0 2 5 2 2 5 6 8 9 9 9 5 3 11 8 9 11 9 9 5 7 4 3 4 3 8 6 9 12 6 9 9 10 7 8 6 4 6 5 5 2 2 2 3 1 2 6 8 5 14 9 5 9 10 22 23 20 17 18 20 21 19 18 17 15 15 16
28 27 16 9 9 14 12 7 5 2 2 3 0 2 2 3 7 8 12 9 14 5 8 6 14 12 4 9 11 8 8 8 7 4 9 5 11 9 10 10 8 4 4 3 8 6 5 9 12 8 6 6 9 13 10 7 5 9 6 9 8 6 3 3 4 5 7 9 7 3 4 4 8 7 16 20 23 23 17 12 12 15 18 19 17 17 17 17
31 23 13 12 10 14 19 8 7 8 4 1 2 3 6 8 3 5 8 9 9 10 12 9 8 7 8 8 5 8 10 7 11 5 8 8 9 8 10 11 11 6 3 5 3 3 10 7 8 9 6 7 11 9 8 5 5 5 4 8 6 6 6 4 7 5 4 2 2 1 4 6 6 3 3 14 18 11 9 10 12 15 14 14 13 14 15 15
20 9 8 9 4 6 11 10 11 11 8 5 4 3 10 9 6 5 4 2 4 6 9 10 6 6 4 6 4 7 9 4 11 7 3 10 10 10 10 7 11 13 7 8 3 3 3 5 5 5 9 9 12 8 6 8 7 5 4 5 7 7 9 2 1 2 3 3 4 3 2 3 4 3 3 3 5 10 13 13 14 15 16 15 15 15 13 14
11 12 8 4 7 5 11 13 12 11 5 6 5 8 8 5 7 2 3 3 0 3 3 7 3 2 5 4 3 8 8 7 5 7 4 4 7 11 9 9 10 11 13 8 5 3 5 6 7 6 9 10 11 9 8 11 7 3 6 8 2 2 6 7 4 1 1 4 5 1 4 3 1 3 3 6 7 9 14 16 18 16 13 15 15 14 14 16
11 7 9 8 12 7 12 15 15 7 5 7 9 9 2 6 5 12 2 5 6 7 5 3 3 3 6 6 7 5 6 11 6 7 4 10 3 10 12 7 11 11 12 12 7 3 4 8 6 5 9 7 6 4 6 5 7 9 9 6 9 3 3 2 3 2 1 2 2 3 2 3 6 4 1 4 11 12 16 17 16 14 13 15 14 14 14 14
4 3 9 8 1 14 14 17 11 10 5 5 8 7 5 9 4 7 1 2 3 5 6 3 3 2 5 10 10 12 5 11 7 9 6 5 7 10 14 9 9 15 13 12 10 6 0 2 6 5 6 6 5 7 9 9 1 0 3 3 2 5 5 4 7 5 6 3 1 5 2 4 5 3 9 12 14 17 14 13 15 16 16 14 14 13 12 12
6 4 5 7 8 12 16 12 8 5 4 9 7 8 1 5 7 9 8 3 1 2 5 6 5 10 9 10 11 9 4 9 8 7 8 5 9 7 16 13 6 14 17 14 9 8 7 4 7 7 4 2 9 5 10 10 9 3 3 4 1 1 3 4 0 5 6 5 5 4 4 4 6 5 8 13 10 8 14 15 10 11 13 14 13 13 12 13
4 2 7 5 10 11 12 7 5 6 5 3 1 3 5 6 3 2 3 10 9 9 12 7 6 9 9 11 14 8 7 8 7 6 7 6 11 1 10 12 9 12 15 14 13 7 4 5 9 6 9 6 6 6 12 13 13 9 9 8 8 4 4 5 6 1 3 4 3 4 8 4 9 3 7 7 7 10 9 12 12 12 11 11 12 13 13 13
4 5 4 1 3 2 3 5 3 2 1 5 5 2 4 5 9 10 8 8 9 7 7 10 12 11 12 13 13 11 7 10 9 7 5 9 10 8 8 16 15 12 12 10 12 10 7 3 4 8 8 9 9 9 11 13 12 9 12 9 10 5 6 4 3 5 1 3 5 4 5 4 7 2 7 9 9 13 14 16 14 11 11 11 13 16 15 15
1 7 13 16 14 2 1 4 1 2 4 3 3 10 9 10 10 8 9 4 6 7 8 9 12 10 12 11 13 11 12 9 5 5 3 9 13 17 13 23 19 15 14 9 12 9 8 5 4 4 5 7 9 11 12 10 9 3 4 4 7 7 6 7 6 6 5 1 1 1 1 4 5 1 5 8 7 6 8 12 14 11 11 12 12 10 9 7
4 6 9 2 3 4 2 4 3 5 5 5 7 9 8 8 9 8 8 9 7 5 9 7 10 11 11 13 11 10 3 7 5 5 3 2 5 14 14 22 20 12 11 6 11 7 5 4 6 3 3 5 7 4 6 5 5 4 4 5 6 5 5 3 4 1 3 5 8 8 4 3 2 2 1 8 9 10 10 10 13 12 9 10 11 10 10 11
6 5 7 8 4 2 2 3 4 4 5 8 8 11 10 8 8 13 12 11 8 9 7 10 11 10 10 11 14 12 7 10 3 8 7 4 2 4 11 16 23 15 15 12 16 10 8 5 8 8 9 8 6 8 8 6 6 2 2 6 9 9 8 5 4 2 5 2 6 4 3 6 4 1 2 7 11 10 10 12 11 13 13 11 10 10 10 9
4 4 6 4 3 3 1 4 2 4 4 6 9 7 8 10 7 9 13 14 14 13 13 13 13 13 14 13 14 11 3 4 5 4 4 0 0 1 3 2 3 9 17 19 14 11 4 5 6 9 11 9 10 9 8 7 4 7 4 9 6 9 9 6 6 6 9 5 6 7 11 6 3 6 6 7 10 13 11 9 11 9 10 11 12 12 11 11
3 0 4 6 8 3 6 3 6 8 6 6 2 4 9 10 9 10 7 7 7 12 12 13 4 2 5 9 7 3 2 6 9 4 7 2 2 1 5 5 1 4 10 12 13 7 4 6 8 13 14 15 12 9 4 10 12 12 8 8 9 8 8 9 8 5 6 10 7 2 6 15 13 12 11 10 8 9 11 13 13 12 12 13 12 10 11 10
1 2 3 2 2 5 10 6 11 11 11 7 5 4 10 13 11 9 7 8 13 11 8 3 11 11 13 16 14 10 4 3 2 2 5 3 4 3 3 4 2 7 8 3 8 7 6 6 7 11 15 16 17 16 6 8 11 13 13 13 13 10 7 8 6 6 9 8 10 8 10 13 16 15 15 17 16 17 18 17 15 15 12 7 8 10 12 12
2 3 2 7 4 4 5 13 14 10 12 9 4 8 11 12 14 9 6 6 7 7 6 4 2 2 2 7 5 4 1 2 3 1 2 5 4 6 5 3 1 5 6 4 2 2 4 9 8 11 12 13 13 13 7 6 6 10 13 5 3 4 5 6 7 8 13 7 10 15 17 18 17 19 19 18 13 13 10 9 8 9 11 10 11 11 12 13
4 4 4 7 4 7 9 7 7 8 8 8 3 5 8 9 12 10 7 4 5 8 1 2 1 3 5 7 9 2 1 2 2 1 2 3 6 2 3 1 3 3 3 1 1 3 3 5 11 10 9 12 15 13 7 8 9 6 4 5 3 2 2 5 4 3 8 2 3 13 14 13 7 7 12 4 4 6 8 9 12 11 10 11 11 13 12 12
4 4 4 6 7 4 4 5 5 6 5 4 2 6 10 12 11 6 5 4 1 4 8 10 9 5 6 5 4 2 2 2 3 3 4 1 1 2 1 3 1 5 6 4 2 3 1 4 2 6 8 5 6 6 5 4 6 6 4 3 4 5 2 1 2 4 4 3 1 11 12 9 10 3 3 5 6 12 13 11 9 7 9 11 12 10 10 10
5 4 5 2 3 3 6 5 7 5 3 2 6 11 9 16 12 7 4 3 1 2 4 8 6 4 4 3 7 5 6 6 7 7 5 6 4 4 4 4 3 3 3 2 1 3 1 3 4 4 7 4 5 8 8 9 5 1 3 3 2 4 4 2 2 2 0 7 10 8 11 14 10 8 11 5 7 9 9 8 7 6 7 8 9 9 8 9
Wind_Direction
349 350 349 348 348 346 346 346 345 344 342 340 338 336 335 336 336 336 341 340 342 338 338 335 331 324 322 321 320 323 331 336 331 251 200 242 191 215 210 243 227 198 167 148 306 347 305 316 286 262 256 352 264 234 234 170 158 120 143 131 200 209 152 203 164 170 152 118 125 132 137 131 131 119 109 116 123 123 127 117 114 113 116 120 133 136 142 145
348 349 348 346 345 345 344 344 342 339 339 337 337 337 335 335 334 335 335 339 340 339 338 337 329 323 320 319 321 324 332 300 293 262 233 237 188 210 211 190 161 162 147 228 221 226 258 289 266 304 291 280 202 242 66 288 132 155 139 134 204 176 212 154 179 148 125 131 138 136 138 130 135 129 137 129 136 128 113 114 115 107 113 123 137 142 140 144
348 347 345 343 343 342 342 339 336 335 336 337 338 336 334 333 333 331 332 336 338 341 338 337 330 322 316 319 314 330 337 310 254 270 264 247 224 209 203 194 165 163 172 181 218 195 194 229 351 3 338 280 239 260 252 244 66 225 135 174 207 184 181 152 143 155 143 143 131 131 140 128 139 128 128 124 127 126 129 127 121 128 132 137 137 140 140 141
348 346 344 341 341 340 339 336 335 337 338 337 334 334 333 332 330 330 330 333 335 338 337 337 329 321 317 312 319 320 258 281 290 246 257 317 224 211 204 199 173 178 199 258 250 205 249 306 339 324 297 243 275 249 265 242 159 236 131 169 183 151 125 163 142 159 127 124 131 132 126 99 111 120 123 124 116 134 140 147 146 145 143 138 142 140 141 142
346 345 341 341 339 337 335 334 336 336 334 332 332 330 331 330 329 328 328 330 332 334 334 336 332 318 314 310 322 342 349 21 269 229 254 328 277 205 195 178 169 178 190 191 352 273 270 291 321 310 222 279 277 249 236 234 191 46 149 163 150 148 133 163 140 142 134 120 113 120 111 109 113 113 131 136 138 162 155 156 142 144 143 144 144 145 144 145
345 342 341 341 338 336 333 332 333 335 331 331 330 328 328 329 328 327 325 326 329 330 330 335 330 322 315 310 312 271 35 345 282 273 8 356 8 181 175 159 163 161 166 238 220 314 14 348 168 237 270 196 233 232 283 279 147 99 344 125 126 146 138 159 153 131 101 112 116 113 121 112 117 135 147 138 142 150 143 142 144 144 146 143 139 143 147 150
342 341 340 339 335 333 332 331 332 332 331 330 330 329 327 327 325 324 321 323 325 326 326 334 330 321 319 307 258 55 161 266 317 246 349 1 88 153 150 140 133 135 149 184 229 217 134 214 195 242 280 291 284 264 270 266 176 136 141 137 141 138 140 142 110 108 110 113 119 125 120 114 128 134 154 121 133 134 138 138 139 142 142 140 143 148 151 155
341 340 339 335 334 332 330 330 329 330 330 329 326 325 324 322 321 321 320 320 322 322 321 329 328 324 335 309 6 355 41 253 248 272 284 87 99 129 126 114 142 137 160 208 190 192 186 238 221 42 248 239 255 294 291 339 296 118 113 115 113 93 100 105 107 106 110 110 118 103 94 102 100 121 123 124 131 132 135 135 137 140 142 146 148 153 157 161
339 337 336 333 332 332 330 328 328 328 328 326 324 322 321 321 319 317 318 319 319 319 314 324 324 326 327 293 109 348 270 231 251 154 131 119 127 137 128 146 164 162 203 217 202 198 170 254 182 109 290 333 316 307 284 248 294 137 120 115 114 106 102 102 100 106 109 112 111 97 96 89 101 96 102 132 130 135 136 137 141 145 149 152 156 159 163 168
338 336 334 333 331 331 328 327 327 326 323 324 323 322 318 317 315 314 314 315 314 314 311 317 319 335 336 207 55 24 261 240 277 160 150 139 139 151 168 156 158 184 194 226 203 205 204 171 133 278 313 294 297 294 289 179 196 138 125 124 113 112 107 106 108 109 111 118 118 112 111 112 122 115 111 129 131 135 138 143 148 153 158 161 164 167 169 172
339 337 334 332 330 328 327 328 325 325 323 322 320 318 316 313 312 310 310 311 309 307 304 311 315 331 351 318 127 237 260 347 16 68 137 140 141 154 192 178 175 178 193 237 217 213 231 304 296 338 341 238 349 293 277 193 148 124 122 86 96 109 114 115 114 121 114 106 121 119 118 105 101 111 142 145 143 142 144 149 156 160 164 165 167 170 170 174
339 337 334 332 330 327 326 325 325 323 322 320 318 316 312 312 309 307 304 306 304 297 304 296 298 284 276 180 187 227 258 288 23 66 41 158 170 195 193 189 173 183 169 212 240 232 206 241 316 29 219 23 298 310 264 171 124 129 108 103 110 114 118 130 130 141 119 131 124 111 90 97 121 133 145 147 147 147 146 153 160 165 165 161 163 170 171 174
338 337 335 334 330 327 326 324 323 323 321 318 317 313 312 310 307 302 301 302 291 284 291 297 299 248 68 298 226 237 255 280 291 289 289 210 293 299 248 227 195 177 178 197 232 226 210 215 192 242 251 264 268 241 301 298 140 109 115 122 117 119 136 154 130 136 122 154 134 121 114 183 138 143 151 149 146 144 145 156 165 164 162 159 163 170 176 172
338 336 335 333 329 327 326 324 324 322 319 318 314 312 310 307 305 301 299 291 274 263 258 260 288 268 104 244 276 215 230 232 245 281 243 220 224 265 238 242 234 164 214 216 256 265 264 217 156 241 276 277 279 332 303 222 144 133 134 109 142 128 162 184 144 144 129 166 143 129 130 213 158 157 154 153 147 150 155 163 164 158 161 162 165 167 180 170
337 335 333 332 330 329 327 324 323 320 319 317 315 312 311 307 303 301 297 291 254 244 247 203 245 134 47 267 270 271 244 231 246 238 208 191 203 256 236 228 227 213 207 214 228 239 230 245 242 259 270 228 239 292 297 200 256 143 112 128 165 138 166 180 146 145 135 170 133 101 115 166 167 164 161 156 155 154 157 165 156 156 158 167 163 165 188 169
335 334 331 330 330 329 326 324 322 321 318 318 315 312 310 303 300 296 299 233 205 118 111 233 212 155 355 290 268 300 293 128 234 224 211 188 194 212 209 203 206 226 225 245 227 249 248 229 245 220 262 285 258 262 285 92 15 10 118 165 172 136 177 145 173 158 148 144 163 139 156 135 173 171 163 162 160 158 160 162 156 158 163 168 168 169 184 167
334 332 330 332 331 328 327 325 322 320 320 318 317 310 304 298 298 254 202 153 200 205 204 67 104 173 120 231 314 309 275 250 238 191 162 191 188 203 158 203 230 241 238 260 233 237 248 220 243 245 237 227 152 112 0 186 175 178 79 156 177 154 171 174 168 167 149 147 178 149 138 186 163 171 163 167 162 160 161 161 162 162 165 171 169 166 180 176
334 332 332 332 329 327 326 324 322 321 319 317 317 303 301 303 295 123 62 109 267 176 241 250 223 310 270 340 278 216 327 286 229 240 175 187 184 184 161 190 231 214 219 271 265 222 177 241 163 222 296 255 82 82 148 216 176 178 162 150 174 140 170 188 164 179 155 168 147 160 141 156 164 169 165 169 166 161 166 163 164 165 166 170 172 167 177 183
334 334 332 331 329 327 324 322 322 323 321 317 311 291 293 38 96 275 132 136 95 19 32 197 124 109 249 280 234 309 282 262 278 193 248 151 196 178 186 180 193 173 211 155 277 179 209 239 4 300 253 237 177 149 180 217 202 176 163 162 162 156 188 185 174 178 162 175 143 153 158 160 168 174 172 167 170 159 168 160 164 167 168 173 174 171 174 185
334 332 332 329 325 325 322 321 321 324 328 329 344 350 93 1 7 359 323 164 224 241 259 262 200 255 283 277 273 258 257 276 274 231 237 208 158 168 198 187 212 176 172 194 263 241 146 205 217 219 235 226 201 182 202 234 195 220 160 150 176 176 187 177 168 182 164 124 163 161 158 162 170 176 180 170 168 159 165 160 169 169 173 176 173 175 176 183
331 332 330 329 327 324 323 321 322 323 326 308 290 3 14 315 344 341 330 288 237 243 249 258 213 218 240 271 267 263 313 293 222 222 219 180 185 129 208 181 192 217 208 191 187 264 153 220 236 227 230 222 220 212 202 265 292 206 190 163 185 182 187 182 173 180 182 143 182 158 156 165 173 177 182 173 167 171 173 166 171 175 175 176 173 175 176 183
332 331 330 328 328 326 323 321 321 320 325 273 331 27 249 249 243 278 322 299 299 253 246 250 251 251 251 246 259 251 258 264 276 235 233 173 178 172 228 191 183 208 245 180 253 266 182 211 235 233 232 236 240 244 221 206 249 247 207 185 174 209 156 189 186 174 188 118 169 163 157 172 175 179 181 178 180 181 177 171 174 171 175 177 175 176 173 166
332 329 330 329 328 326 324 318 319 320 324 339 327 314 254 252 303 299 229 262 268 266 249 248 251 242 258 248 249 218 219 236 245 237 207 188 145 196 162 194 185 205 221 199 197 186 241 262 236 240 242 237 268 249 251 242 216 210 200 162 205 191 148 212 221 182 179 150 164 171 155 178 182 181 183 189 185 186 186 175 173 172 174 178 178 174 172 172
330 330 328 330 328 326 322 317 312 306 325 305 259 231 262 289 305 324 332 242 295 276 220 236 231 240 251 249 231 191 214 227 214 231 204 173 171 149 170 184 181 195 221 206 192 189 208 242 223 228 245 231 246 256 248 236 258 208 196 177 169 175 208 187 195 163 152 24 140 145 125 171 184 182 200 206 196 183 187 180 179 182 179 181 176 170 171 174
329 329 329 328 331 327 322 315 340 349 298 278 219 239 308 328 332 347 338 304 277 275 148 235 201 226 236 236 237 241 202 224 219 198 189 175 164 134 208 183 143 210 218 209 201 198 244 250 255 224 242 243 242 261 250 218 252 252 208 192 192 177 203 203 146 140 104 162 169 147 87 214 207 194 193 189 196 199 189 184 187 187 184 176 176 179 178 176
329 328 327 326 330 335 315 330 26 340 322 289 248 345 334 332 325 336 333 54 287 275 119 241 136 243 160 223 166 218 223 239 204 189 174 187 165 176 148 230 159 198 211 202 206 200 220 246 226 230 231 239 237 240 252 202 239 247 259 199 198 187 187 165 160 135 115 180 220 170 157 215 217 209 199 189 191 195 196 194 191 188 186 185 185 180 178 177
328 326 323 325 331 346 6 319 345 327 329 300 9 345 330 321 329 325 63 340 306 225 195 293 166 275 176 180 170 128 195 229 186 174 177 169 183 155 164 220 175 193 187 166 193 233 198 228 237 242 235 232 236 241 247 189 190 241 237 204 184 168 164 169 166 174 198 43 95 202 138 142 188 229 205 189 187 192 196 201 196 194 191 190 188 183 182 180
325 321 319 322 323 346 236 289 327 309 239 271 343 330 320 316 314 34 77 347 288 222 211 201 223 329 307 153 135 181 210 172 172 199 183 168 173 172 186 177 185 195 189 178 213 274 201 213 217 233 239 231 226 228 237 186 201 218 241 205 175 173 165 175 176 186 176 136 183 226 76 98 205 226 157 187 188 198 201 199 202 199 195 192 189 187 185 183
320 316 316 319 318 304 268 206 257 250 250 338 325 315 317 308 302 98 120 150 264 307 46 187 334 210 294 119 169 203 210 165 190 174 174 166 183 122 205 203 189 198 217 189 207 257 231 200 206 221 230 235 235 240 230 198 219 251 240 212 158 136 185 174 180 179 172 126 186 203 200 166 262 255 161 214 202 202 204 202 201 198 194 193 192 190 188 185
317 312 313 318 319 296 265 198 227 245 286 305 301 302 302 301 43 46 32 242 352 284 298 334 306 198 200 164 200 205 198 197 206 159 155 173 196 166 237 161 197 201 219 216 209 210 231 221 197 205 218 231 239 241 233 219 219 225 280 253 238 48 147 189 129 124 96 188 218 202 200 180 198 219 184 170 206 206 197 201 205 200 198 196 194 188 187 183
314 309 309 315 291 294 322 272 255 244 244 279 301 296 288 25 119 102 230 249 329 254 244 180 232 114 158 178 195 206 213 174 202 162 164 170 186 195 153 212 129 174 208 224 227 233 242 265 233 216 208 226 228 246 248 213 214 206 231 223 237 312 53 97 360 5 157 237 244 189 203 199 213 265 247 221 212 204 181 190 195 196 197 197 194 189 187 183
312 308 305 298 257 247 212 239 163 94 5 343 336 342 78 74 2 170 220 9 353 269 194 217 218 166 196 193 182 184 196 201 199 167 168 181 179 189 200 190 166 192 232 184 240 241 242 233 242 254 211 209 219 233 252 243 200 220 202 60 153 258 116 317 71 204 211 191 235 187 188 204 223 212 196 213 223 217 197 190 189 192 194 192 191 188 187 184
312 307 302 284 256 215 232 241 287 325 343 326 328 351 97 122 223 216 253 37 248 169 331 3 10 296 206 185 211 199 189 206 184 219 167 186 174 203 203 197 176 161 186 224 218 244 249 242 221 234 246 213 198 217 224 248 247 182 192 141 111 137 146 187 252 222 287 289 269 181 171 205 228 256 220 206 214 211 197 196 188 186 184 186 190 190 185 185
311 309 304 261 215 213 228 214 201 246 295 314 28 39 78 149 239 191 217 217 253 288 332 338 331 314 246 215 206 170 188 214 184 195 169 182 183 191 215 216 187 143 178 169 200 185 238 242 231 198 231 179 205 216 195 189 208 222 157 156 175 144 155 215 179 189 200 200 240 265 134 230 151 235 195 204 210 212 201 180 168 180 183 186 187 187 186 187
312 300 272 273 235 232 229 185 161 173 189 182 95 155 166 223 232 205 219 228 244 287 290 315 303 305 277 257 258 200 180 192 211 164 177 163 199 193 195 215 210 177 135 199 238 152 220 233 247 212 207 202 212 204 178 156 206 222 164 95 109 211 135 198 199 158 204 218 285 209 194 188 180 247 278 208 210 198 154 159 154 178 185 183 180 187 189 187
313 309 282 264 223 233 172 178 170 174 156 134 136 166 216 191 207 172 239 206 264 277 312 321 322 292 288 265 242 223 197 186 201 205 205 184 188 201 196 198 205 189 178 193 198 230 206 251 246 236 208 211 219 164 196 150 196 245 145 197 203 179 134 123 351 265 103 57 251 210 301 311 283 348 3 97 140 169 167 167 170 177 182 176 183 187 187 185
322 322 320 251 238 171 151 154 160 158 156 150 151 226 219 257 231 207 242 199 250 356 341 0 314 357 307 300 260 208 202 202 201 186 229 174 203 196 196 210 197 188 201 166 247 190 164 235 270 204 228 231 219 181 177 178 143 127 192 231 232 88 116 133 194 338 64 166 252 318 211 287 70 244 331 112 144 164 170 179 185 181 171 176 183 184 185 189
316 294 257 258 249 182 138 150 146 145 125 155 212 233 196 238 207 231 249 5 331 349 331 321 275 274 269 279 297 231 172 194 192 184 222 177 257 189 187 207 202 204 194 190 200 252 197 280 290 234 228 218 217 191 223 230 162 158 203 193 160 219 229 296 110 170 168 255 264 300 271 259 180 234 323 178 171 180 184 187 182 177 175 181 182 185 189 189
264 324 323 276 201 141 141 148 143 139 124 177 221 235 250 249 263 246 287 271 261 299 285 247 271 242 304 300 291 293 198 200 181 196 188 195 215 189 202 184 202 207 201 178 199 225 174 187 291 290 230 199 194 155 221 215 282 218 100 177 173 127 170 149 201 182 133 227 109 289 340 242 205 209 194 198 194 182 183 179 187 180 179 179 181 180 179 181
339 342 281 308 89 126 138 143 119 128 143 204 205 228 334 266 256 262 268 288 274 223 239 273 253 282 277 267 282 288 295 243 190 211 197 175 209 195 197 195 192 201 207 191 195 178 231 161 256 277 301 210 212 187 203 188 201 209 171 211 253 255 226 132 25 141 175 169 184 197 276 277 264 216 186 202 195 195 171 173 179 181 184 184 177 170 178 186
299 190 274 14 95 129 147 119 106 176 195 269 232 258 271 263 320 256 249 204 228 225 249 252 263 258 278 297 286 274 282 278 239 224 199 190 183 185 214 198 183 199 203 204 209 176 189 164 219 261 285 253 251 224 195 192 192 188 166 188 188 165 126 171 261 352 109 119 198 165 235 267 270 206 188 160 174 141 162 164 176 189 182 177 177 174 177 187
2 351 259 347 56 224 308 141 197 166 216 230 222 198 256 271 262 268 265 264 241 259 212 243 243 248 258 258 260 276 268 266 250 239 216 187 197 181 199 210 198 188 182 200 212 199 177 146 173 229 239 248 239 238 225 196 191 188 173 205 185 156 119 128 173 266 313 219 125 147 127 279 247 248 172 155 164 170 171 171 175 172 175 175 179 186 187 180
304 236 270 292 288 237 182 295 299 196 219 235 260 271 270 273 272 287 294 265 263 234 246 238 248 258 252 253 262 252 231 251 244 231 215 213 197 198 182 200 205 199 183 204 205 208 159 211 197 250 286 285 267 244 224 196 178 162 198 133 157 187 174 165 168 183 170 303 57 19 60 262 287 304 149 139 155 150 149 154 158 168 174 178 175 174 172 177
285 286 310 294 290 196 156 214 217 230 255 269 243 257 231 249 253 260 243 245 240 256 251 261 261 239 267 255 247 257 259 277 248 233 277 191 236 218 197 195 195 199 177 189 199 181 197 187 163 173 248 274 292 323 248 220 181 174 174 182 174 170 166 157 114 146 162 220 167 128 168 264 269 10 183 135 139 142 156 166 155 161 170 169 173 173 175 177
281 250 230 292 274 172 197 213 241 252 223 244 248 246 251 245 233 240 251 258 256 250 255 244 249 273 275 307 304 301 261 237 277 276 247 199 245 226 229 209 192 197 201 184 190 152 185 186 157 193 203 214 217 207 214 221 218 257 188 179 194 191 180 115 185 178 184 260 107 125 198 252 278 13 250 168 144 150 165 166 171 164 168 169 172 172 176 169
338 341 301 304 357 290 236 342 334 343 312 341 323 289 283 278 269 248 231 244 241 251 250 269 273 279 282 287 284 280 302 323 294 321 298 271 318 312 118 112 273 235 209 194 179 149 177 177 159 181 191 192 209 208 237 161 160 201 208 186 202 203 192 152 111 125 187 211 170 218 163 184 189 191 213 198 160 154 162 161 159 167 170 171 172 172 174 177
321 233 333 327 322 4 339 359 24 24 340 325 288 312 299 293 288 283 264 276 228 232 246 239 227 265 290 289 285 296 296 335 316 333 321 348 253 234 256 133 198 35 292 228 179 159 104 185 195 183 203 209 206 208 222 192 191 201 189 207 199 190 157 145 146 204 182 119 225 253 197 150 197 189 198 184 179 162 164 163 165 165 167 171 176 172 169 176
21 281 22 35 294 308 348 333 4 330 304 316 268 277 285 294 288 281 286 257 281 264 252 227 220 222 241 252 277 281 13 329 313 353 331 312 350 309 334 344 82 23 24 330 194 182 151 189 211 176 209 211 218 223 199 202 207 191 198 203 212 211 168 166 195 178 135 168 203 202 185 171 189 190 197 188 173 173 175 170 166 166 163 156 155 161 172 180
278 334 289 22 344 321 300 286 299 286 298 296 269 278 284 289 292 270 246 283 272 285 226 250 287 320 306 307 269 237 321 48 309 323 38 333 356 330 340 338 331 42 16 25 346 208 161 213 187 186 199 216 218 224 204 181 191 212 203 197 193 197 225 194 191 164 169 191 195 177 185 186 178 196 195 192 184 161 165 152 144 148 160 161 162 168 179 188
20 349 327 338 269 288 283 284 291 301 297 302 294 286 300 302 306 336 338 346 326 297 12 268 320 344 335 321 298 217 145 231 225 265 290 47 335 7 301 236 316 351 52 291 323 300 217 269 191 180 191 212 215 212 193 188 162 186 181 167 191 226 211 198 202 198 185 205 130 173 181 208 240 193 184 164 97 127 139 152 162 170 158 163 166 174 182 187
320 293 306 316 313 265 276 294 300 293 294 292 277 301 311 308 308 312 276 234 221 349 341 344 336 354 354 358 50 89 273 294 276 274 260 201 233 239 337 289 333 325 336 329 32 310 131 260 247 140 170 213 204 168 171 180 185 182 198 204 156 141 219 321 116 182 137 212 162 171 177 216 230 163 87 121 151 150 165 169 168 168 172 171 177 176 176 187
314 276 319 276 276 295 312 300 298 308 263 344 352 311 315 305 293 306 327 258 305 310 334 315 311 50 17 39 14 342 325 299 287 279 268 256 233 257 209 247 266 278 305 292 257 273 235 172 196 150 155 199 217 138 133 128 98 141 254 253 157 84 123 125 98 47 170 141 122 148 217 215 195 157 139 158 160 157 147 162 170 178 177 168 168 177 186 189